Weather History for Laramie, WY

Change the Weather History Date:

Monday, November 26, 2012

  Actual Average Record
Temperature  
Mean Temperature 26 °F 24 °F  
Max Temperature 34 °F 36 °F 61 °F (1950)
Min Temperature 18 °F 13 °F -24 °F (1952)
Degree Days  
Heating Degree Days 39 40  
Month to date heating degree days 709 904  
Since 1 July heating degree days 1774 2147  
Cooling Degree Days 0 0  
Month to date cooling degree days 0 0  
Year to date cooling degree days 211 67  
Moisture  
Dew Point 17 °F    
Average Humidity 60    
Maximum Humidity 96    
Minimum Humidity 24    
Precipitation  
Precipitation T in 0.01 in 0.46 in (1983)
Month to date precipitation 0.16 0.48  
Year to date precipitation 6.06 10.54  
Sea Level Pressure  
Sea Level Pressure 30.17 in    
Wind  
Wind Speed 11 mph (NNW)    
Max Wind Speed 26 mph    
Max Gust Speed 31 mph    
Visibility 10 miles    
Events Snow    
T = Trace of Precipitation, MM = Missing Value Source: NWS Daily Summary

Daily Weather History Graph

Daily Weather History Graph

Search for Another Location

Airport:

Trip Planner

Search our weather history database for the weather conditions in past years. The results will help you decide how hot, cold, wet, or windy it might be!

Date:

Astronomy

Nov. 26, 2012 Rise Set
Actual Time 7:04 AM MST 4:35 PM MST
Civil Twilight 6:33 AM MST 5:06 PM MST
Nautical Twilight 5:59 AM MST 5:40 PM MST
Astronomical Twilight 5:26 AM MST 6:13 PM MST
Moon 3:30 PM MST (11/26) 5:16 AM MST (11/26)
Length of Visible Light 10h 32m
Length of Day
9h 31m
Waxing Gibbous, 97% of the Moon is Illuminated
Nov 26
Waxing Gibbous
Nov 28
Full
Dec 6
Last Quarter
Dec 13
New
Dec 19
First Quarter

Hourly Weather History & Observations

Time (MST) Temp. Windchill Dew Point Humidity Pressure Visibility Wind Dir Wind Speed Gust Speed Precip Events Conditions
12:53 AM 28.0 °F 20.0 °F 16.0 °F 61% 29.88 in 10.0 mi NW 8.1 mph - N/A   Clear
1:53 AM 30.0 °F 17.9 °F 19.9 °F 66% 29.93 in 10.0 mi NW 18.4 mph 23.0 mph N/A   Overcast
2:53 AM 27.0 °F 16.1 °F 21.0 °F 78% 30.02 in 10.0 mi NW 12.7 mph - N/A   Partly Cloudy
3:53 AM 26.1 °F 15.6 °F 23.0 °F 88% 30.05 in 10.0 mi NW 11.5 mph - N/A   Overcast
4:43 AM 24.8 °F 14.6 °F 21.2 °F 86% 30.10 in 10.0 mi North 10.4 mph - N/A   Overcast
4:53 AM 23.0 °F 11.1 °F 21.0 °F 92% 30.11 in 10.0 mi North 12.7 mph - N/A   Mostly Cloudy
5:05 AM 24.8 °F 13.4 °F 21.2 °F 86% 30.11 in 10.0 mi North 12.7 mph - N/A   Mostly Cloudy
5:19 AM 24.8 °F 11.9 °F 21.2 °F 86% 30.12 in 10.0 mi North 16.1 mph - N/A   Mostly Cloudy
5:43 AM 24.8 °F 14.6 °F 21.2 °F 86% 30.14 in 10.0 mi North 10.4 mph - N/A   Overcast
5:53 AM 23.0 °F 11.1 °F 19.9 °F 88% 30.15 in 9.0 mi North 12.7 mph - 0.00 in Snow Light Snow
6:12 AM 21.2 °F 8.9 °F 19.4 °F 93% 30.15 in 9.0 mi North 12.7 mph - 0.00 in Snow Light Snow
6:40 AM 21.2 °F 9.5 °F 19.4 °F 93% 30.17 in 10.0 mi North 11.5 mph - 0.00 in   Overcast
6:53 AM 21.9 °F 10.4 °F 19.9 °F 92% 30.18 in 10.0 mi NNW 11.5 mph - 0.00 in   Overcast
7:04 AM 21.2 °F 8.9 °F 19.4 °F 93% 30.17 in 10.0 mi NNW 12.7 mph - N/A   Overcast
7:53 AM 21.0 °F 12.4 °F 19.0 °F 92% 30.24 in 10.0 mi North 6.9 mph - N/A   Overcast
8:02 AM 21.2 °F 10.1 °F 19.4 °F 93% 30.21 in 10.0 mi North 10.4 mph - N/A   Overcast
8:24 AM 21.2 °F 8.9 °F 19.4 °F 93% 30.21 in 10.0 mi North 12.7 mph - N/A   Scattered Clouds
8:53 AM 23.0 °F 14.7 °F 19.9 °F 88% 30.25 in 10.0 mi NNW 6.9 mph - N/A   Overcast
9:21 AM 24.8 °F 16.1 °F 19.4 °F 80% 30.23 in 10.0 mi North 8.1 mph - N/A   Mostly Cloudy
9:31 AM 24.8 °F 16.9 °F 19.4 °F 80% 30.23 in 10.0 mi NNW 6.9 mph - N/A   Overcast
9:53 AM 26.1 °F 17.6 °F 19.0 °F 75% 30.27 in 10.0 mi NNW 8.1 mph - N/A   Mostly Cloudy
10:07 AM 26.6 °F 19.1 °F 19.4 °F 74% 30.23 in 10.0 mi North 6.9 mph - N/A   Scattered Clouds
10:53 AM 28.0 °F 20.0 °F 18.0 °F 66% 30.25 in 10.0 mi North 8.1 mph - N/A   Clear
11:53 AM 30.0 °F 25.2 °F 18.0 °F 61% 30.24 in 10.0 mi North 4.6 mph - N/A   Clear
12:53 PM 32.0 °F 28.7 °F 18.0 °F 56% 30.19 in 10.0 mi NW 3.5 mph - N/A   Clear
1:53 PM 34.0 °F 28.8 °F 17.1 °F 50% 30.16 in 10.0 mi NNE 5.8 mph - N/A   Clear
2:53 PM 34.0 °F 28.8 °F 18.0 °F 52% 30.16 in 10.0 mi NNE 5.8 mph - N/A   Clear
3:53 PM 32.0 °F - 16.0 °F 52% 30.16 in 10.0 mi Calm Calm - N/A   Clear
4:53 PM 27.0 °F - 14.0 °F 58% 30.22 in 10.0 mi Calm Calm - N/A   Clear
5:53 PM 19.9 °F 12.1 °F 16.0 °F 85% 30.26 in 10.0 mi South 5.8 mph - N/A   Clear
6:53 PM 24.1 °F 14.4 °F 10.0 °F 55% 30.25 in 10.0 mi SW 9.2 mph - N/A   Clear
7:53 PM 30.0 °F 17.9 °F 7.0 °F 38% 30.21 in 10.0 mi SW 18.4 mph - N/A   Clear
8:53 PM 28.9 °F 16.5 °F 7.0 °F 40% 30.22 in 10.0 mi SW 18.4 mph - N/A   Clear
9:53 PM 32.0 °F 18.9 °F 3.0 °F 29% 30.18 in 10.0 mi WSW 24.2 mph 31.1 mph N/A   Clear
10:53 PM 33.1 °F 20.6 °F -0.0 °F 24% 30.17 in 10.0 mi WSW 23.0 mph 29.9 mph N/A   Clear
11:53 PM 33.1 °F 21.2 °F -0.9 °F 23% 30.15 in 10.0 mi WSW 20.7 mph 31.1 mph N/A   Clear